{"data":{"norad_id":58078,"intl_designator":"2023-160D","name":"STARLINK-30597","alt_names":[],"object_type":"PAYLOAD","status":"ACTIVE","operator":null,"country":"US","launch_date":"2023-10-18","launch_site_code":"AFETR","launch_vehicle":null,"mission":null,"orbit_class":"UNKNOWN","rcs_meters":null,"size_class":null,"mass_kg":null,"dimensions":null,"purposes":["comms"],"wikipedia_slug":null,"has_3d_model":false,"image_url":null,"decayed_at":null,"tle_current":{"epoch":"2026-05-24T23:03:43.691040Z","epoch_age_seconds":81732,"freshness":"FRESH","line1":"1 58078U 23160D   26144.96092235 -.00000709  00000+0 -16232-4 0  9998","line2":"2 58078  43.0041   6.8692 0001577 270.6356  89.4315 15.27577383144616","mean_motion":15.27577383,"eccentricity":0.0001577,"inclination_deg":43.0041,"raan_deg":6.8692,"arg_perigee_deg":270.6356,"mean_anomaly_deg":89.4315,"bstar":-1.6232e-5,"rev_number":14461,"period_min":94.266910208633,"perigee_km":481.97492200718,"apogee_km":484.13894257342,"semimajor_km":6861.1939322903,"source":"CELESTRAK","updated_at":"2026-05-25T13:38:18.520417Z"}}}